CDT,Max TemperatureF,Mean TemperatureF,Min TemperatureF,Max Dew PointF,MeanDew PointF,Min DewpointF,Max Humidity, Mean Humidity, Min Humidity, Max Sea Level PressureIn, Mean Sea Level PressureIn, Min Sea Level PressureIn, Max VisibilityMiles, Mean VisibilityMiles, Min VisibilityMiles, Max Wind SpeedMPH, Mean Wind SpeedMPH, Max Gust SpeedMPH,PrecipitationIn, CloudCover, Events, WindDirDegrees
2013-9-1,80,76,71,63,61,59,69,61,51,29.97,29.87,29.82,10,10,3,16,4,20,0.07,3,Thunderstorm,178
2013-9-2,89,79,69,66,62,57,69,59,46,29.94,29.89,29.85,10,9,4,21,3,25,0.18,2,Thunderstorm,336
2013-9-3,84,74,64,57,55,54,68,52,35,30.06,30.00,29.94,10,10,5,13,3,,0.00,0,,2
2013-9-4,82,73,64,57,54,52,64,53,37,30.16,30.11,30.05,10,10,5,9,4,,0.00,0,,63
2013-9-5,84,72,60,57,54,48,64,53,37,30.20,30.16,30.12,10,10,7,9,3,,0.00,0,,64
2013-9-6,86,76,66,61,56,54,64,52,33,30.18,30.12,30.06,10,10,1,7,3,,0.00,0,,76
2013-9-7,91,78,64,63,58,54,68,54,36,30.09,30.05,29.98,10,10,5,9,2,,0.00,0,,244
2013-9-8,93,80,68,64,61,55,64,51,36,30.01,29.96,29.90,10,10,7,8,2,,0.00,0,,220
2013-9-9,93,83,73,64,62,59,65,51,38,30.04,30.00,29.94,10,10,3,10,4,18,0.00,2,,165
2013-9-10,93,83,73,66,61,57,61,53,38,30.15,30.10,30.04,10,10,8,15,3,24,0.23,2,Thunderstorm,150
2013-9-11,89,80,71,66,62,59,65,56,43,30.18,30.13,30.08,10,9,6,13,2,,0.00,0,Thunderstorm,158
2013-9-12,89,80,71,66,62,57,69,56,40,30.08,30.03,29.94,10,8,3,9,2,,0.00,1,Thunderstorm,264
2013-9-13,78,69,60,57,48,45,60,45,32,30.06,30.03,30.00,10,8,2,17,9,21,0.00,1,,32
2013-9-14,73,63,53,45,42,39,59,47,33,30.14,30.08,30.05,10,9,2,14,4,20,0.00,0,,55
2013-9-15,82,66,51,52,46,39,67,49,32,30.13,30.09,30.07,10,10,8,9,2,,0.00,0,,224
2013-9-16,84,72,60,59,52,46,59,51,37,30.18,30.15,30.10,10,9,2,13,4,17,0.00,1,,39
2013-9-17,84,74,64,57,55,52,64,53,40,30.20,30.14,30.08,10,9,2,8,5,,0.00,1,,70
2013-9-18,87,78,69,63,58,55,60,53,40,30.14,30.08,30.03,10,10,7,10,5,,0.00,1,,153
2013-9-19,87,78,69,63,59,55,64,52,40,30.11,30.05,29.97,10,10,4,9,4,,0.00,1,,163
2013-9-20,80,74,69,61,57,54,65,58,51,29.99,29.92,29.85,10,9,4,10,5,,0.70,5,,207
2013-9-21,73,65,57,55,46,43,64,49,36,29.94,29.89,29.84,10,10,9,15,9,23,0.08,2,,3
2013-9-22,75,64,53,46,43,39,59,48,34,30.00,29.94,29.90,10,10,5,13,5,17,0.00,0,,41
2013-9-23,78,66,53,52,46,39,63,51,39,30.01,29.95,29.91,10,10,10,10,4,,0.00,0,,77
2013-9-24,73,66,60,57,53,46,64,59,52,29.94,29.90,29.83,10,9,2,15,5,16,0.11,5,,114
2013-9-25,80,73,66,57,56,54,64,58,44,29.88,29.83,29.80,10,7,1,8,3,,0.01,6,,94
2013-9-26,82,72,62,57,54,50,64,53,39,30.02,29.96,29.87,10,8,1,9,5,,0.00,1,,85
2013-9-27,82,72,62,55,52,48,64,51,37,30.12,30.06,30.02,10,9,3,9,4,,0.00,1,,90
2013-9-28,82,73,64,52,50,46,64,47,34,30.15,30.08,30.03,10,10,7,10,5,18,0.00,1,,153
2013-9-29,68,65,62,52,50,48,64,58,49,30.06,30.03,29.99,10,8,2,9,5,,0.23,8,,158
2013-9-30,68,66,64,54,52,52,64,62,56,30.01,29.99,29.96,10,8,1,10,4,,0.02,8,,130